Location: Dillon
(41.1766°N, 107.0923°W)
Time: 08:59:53
(UTC+00:00)

QB50P2 - Pass Details

Date: 29 June 2022
Orbit: 590 x 605 km, 97.9° (Epoch: 09 August)

Event Time Altitude Azimuth Distance (km) Brightness Sun altitude
Rises 07:48:49 0° 24° (NNE) 2,856 ? -25.0°
Reaches altitude 10° 07:51:15 10° 36° (NE) 1,951 ? -25.0°
Enters shadow 07:54:53 28° 95° (E) 1,144 ? -24.8°
